Torna al catalogo

STARLINK-34063

AttivoComunicazioniVLEO
NORAD 64185·PAYLOAD·🇺🇸 United States

Lanciato May 28, 2025 da Cape Canaveral Space Force Station

Loading…

Prossimi Passaggi (prossime 24 ore)

TLE

AggiornatoSource: CelesTrak SupGP

Epoca: Sep 15, 2026, 02:33 UTC

1 64185C 25113R   26258.10673611  .00015368  00000+0  49378-3 0  2588
2 64185  53.1593 289.8193 0001287  86.9681  23.9458 15.31721142    17

Traccia STARLINK-34063 in tempo reale con AllMySat

Download on the App Store